Location: Gönnheim
(49.4488°N, 8.2383°E)
Time: 16:40:14
(UTC+00:00)

Cosmos 1420 Rocket - Pass Details

Date: 07 August 2025
Orbit: 749 x 777 km, 74.0° (Epoch: 10 April)

Event Time Altitude Azimuth Distance (km) Brightness Sun altitude
Exits shadow 23:37:34 36° 253° (WSW) 1,190 4.8 -24.1°
Maximum altitude 23:39:10 48° 300° (WNW) 988 4.7 -24.1°
Drops below altitude 10° 23:44:11 10° 15° (NNE) 2,286 7.5 -24.1°
Enters shadow 00:45:04 -63° 215° (SW) 12,200 10.1 -22.2°
